Year,Month,Day,Hour,Minute,Value (Times are PST for temperature in C)
2020,01,01,10,04,12.20
2020,01,01,10,05,12.20
2020,01,01,10,06,12.30
2020,01,01,10,07,12.30
2020,01,01,10,08,12.30
2020,01,01,10,09,12.30
2020,01,01,10,10,12.40
2020,01,01,10,11,12.40
2020,01,01,10,12,12.40
2020,01,01,10,13,12.40
2020,01,01,10,14,12.40
2020,01,01,10,15,12.40
2020,01,01,10,16,12.40
2020,01,01,10,17,12.30
2020,01,01,10,18,12.30
2020,01,01,10,19,12.30
2020,01,01,10,20,12.30
2020,01,01,10,21,12.30
2020,01,01,10,22,12.30
2020,01,01,10,23,12.40
2020,01,01,10,24,12.40
2020,01,01,10,25,12.40
2020,01,01,10,26,12.50
2020,01,01,10,27,12.50
2020,01,01,10,28,12.60
2020,01,01,10,29,12.60
2020,01,01,10,30,12.60
2020,01,01,10,31,12.60
2020,01,01,10,32,12.70
2020,01,01,10,33,12.70
2020,01,01,10,34,12.70
2020,01,01,10,35,12.70
2020,01,01,10,36,12.70
2020,01,01,10,37,12.80
2020,01,01,10,38,12.80
2020,01,01,10,39,12.80
2020,01,01,10,40,12.80
2020,01,01,10,41,12.80
2020,01,01,10,42,12.80
2020,01,01,10,43,12.80
2020,01,01,10,44,12.80
2020,01,01,10,45,12.80
2020,01,01,10,46,12.80
2020,01,01,10,47,12.80
2020,01,01,10,48,12.70
2020,01,01,10,49,12.70
2020,01,01,10,50,12.70
2020,01,01,10,51,12.60
2020,01,01,10,52,12.60
2020,01,01,10,53,12.60
2020,01,01,10,54,12.60
2020,01,01,10,55,12.60
2020,01,01,10,56,12.60
2020,01,01,10,57,12.60
2020,01,01,10,58,12.60
2020,01,01,10,59,12.60
2020,01,01,11,00,12.60
2020,01,01,11,01,12.60
2020,01,01,11,02,12.60
2020,01,01,11,03,12.60
2020,01,01,11,04,12.70
2020,01,01,11,05,12.70
2020,01,01,11,06,12.70
2020,01,01,11,07,12.70
2020,01,01,11,08,12.60
2020,01,01,11,09,12.70
2020,01,01,11,10,12.70
2020,01,01,11,11,12.70
2020,01,01,11,12,12.70
2020,01,01,11,13,12.70
2020,01,01,11,14,12.60
2020,01,01,11,15,12.60
2020,01,01,11,16,12.60
2020,01,01,11,17,12.60
2020,01,01,11,18,12.60
2020,01,01,11,19,12.60
2020,01,01,11,20,12.60
2020,01,01,11,21,12.60
2020,01,01,11,22,12.60
2020,01,01,11,23,12.60
2020,01,01,11,24,12.60
2020,01,01,11,25,12.50
2020,01,01,11,26,12.50
2020,01,01,11,27,12.40
2020,01,01,11,28,12.40
2020,01,01,11,29,12.40
2020,01,01,11,30,12.40
2020,01,01,11,31,12.40
2020,01,01,11,32,12.30
2020,01,01,11,33,12.30
2020,01,01,11,34,12.40
2020,01,01,11,35,12.40
2020,01,01,11,36,12.40
2020,01,01,11,37,12.40
2020,01,01,11,38,12.40
2020,01,01,11,39,12.30
2020,01,01,11,40,12.30
2020,01,01,11,41,12.30
2020,01,01,11,42,12.20
2020,01,01,11,43,12.20
2020,01,01,11,44,12.10
2020,01,01,11,45,12.00
2020,01,01,11,46,12.00
2020,01,01,11,47,11.90
2020,01,01,11,48,11.90
2020,01,01,11,49,11.90
2020,01,01,11,50,11.90
2020,01,01,11,51,11.90
2020,01,01,11,52,11.90
2020,01,01,11,53,11.90
2020,01,01,11,54,11.80
2020,01,01,11,55,11.90
2020,01,01,11,56,11.90
2020,01,01,11,57,11.90
2020,01,01,11,58,11.90
2020,01,01,11,59,11.90
2020,01,01,12,00,11.90
2020,01,01,12,01,12.00
2020,01,01,12,02,12.00
2020,01,01,12,03,12.00
2020,01,01,12,04,12.10
2020,01,01,12,05,12.10
2020,01,01,12,06,12.10
2020,01,01,12,07,12.10
2020,01,01,12,08,12.10
2020,01,01,12,09,12.20
2020,01,01,12,10,12.20
2020,01,01,12,11,12.20
2020,01,01,12,12,12.20
2020,01,01,12,13,12.20
2020,01,01,12,14,12.30
2020,01,01,12,15,12.30
2020,01,01,12,16,12.30
2020,01,01,12,17,12.30
2020,01,01,12,18,12.20
2020,01,01,12,19,12.20
2020,01,01,12,20,12.20
2020,01,01,12,21,12.20
2020,01,01,12,22,12.20
2020,01,01,12,23,12.20
2020,01,01,12,24,12.10
2020,01,01,12,25,12.00
2020,01,01,12,26,12.00
2020,01,01,12,27,11.90
2020,01,01,12,28,11.80
2020,01,01,12,29,11.70
2020,01,01,12,30,11.60
2020,01,01,12,31,11.60
2020,01,01,12,32,11.60
2020,01,01,12,33,11.60
2020,01,01,12,34,11.50
2020,01,01,12,35,11.50
2020,01,01,12,36,11.50
2020,01,01,12,37,11.50
2020,01,01,12,38,11.50
2020,01,01,12,39,11.50
2020,01,01,12,40,11.60
2020,01,01,12,41,11.50
2020,01,01,12,42,11.50
2020,01,01,12,43,11.50
2020,01,01,12,44,11.50
2020,01,01,12,45,11.50
2020,01,01,12,46,11.40
2020,01,01,12,47,11.40
2020,01,01,12,48,11.40
2020,01,01,12,49,11.40
2020,01,01,12,50,11.40
2020,01,01,12,51,11.40
2020,01,01,12,52,11.40
2020,01,01,12,53,11.40
2020,01,01,12,54,11.40
2020,01,01,12,55,11.40
2020,01,01,12,56,11.40
2020,01,01,12,57,11.40
2020,01,01,12,58,11.40
2020,01,01,12,59,11.50
2020,01,01,13,00,11.50
2020,01,01,13,01,11.50
2020,01,01,13,02,11.60
2020,01,01,13,03,11.60
2020,01,01,13,04,11.60
2020,01,01,13,05,11.60
2020,01,01,13,06,11.60
2020,01,01,13,07,11.60
2020,01,01,13,08,11.60
2020,01,01,13,09,11.70
2020,01,01,13,10,11.70
2020,01,01,13,11,11.70
2020,01,01,13,12,11.70
2020,01,01,13,13,11.70
2020,01,01,13,14,11.70
2020,01,01,13,15,11.80
2020,01,01,13,16,11.80
2020,01,01,13,17,11.80
2020,01,01,13,18,11.90
2020,01,01,13,19,12.10
2020,01,01,13,20,12.30
2020,01,01,13,21,12.50
2020,01,01,13,22,12.70
2020,01,01,13,23,12.80
2020,01,01,13,24,12.90
2020,01,01,13,25,13.00
2020,01,01,13,26,13.10
2020,01,01,13,27,13.10
2020,01,01,13,28,13.20
2020,01,01,13,29,13.20
2020,01,01,13,30,13.20
2020,01,01,13,31,13.20
2020,01,01,13,32,13.20
2020,01,01,13,33,13.20
2020,01,01,13,34,13.30
2020,01,01,13,35,13.30
2020,01,01,13,36,13.30
2020,01,01,13,37,13.30
2020,01,01,13,38,13.30
2020,01,01,13,39,13.30
2020,01,01,13,40,13.30
2020,01,01,13,41,13.30
2020,01,01,13,42,13.30
2020,01,01,13,43,13.30
2020,01,01,13,44,13.30
2020,01,01,13,45,13.30
2020,01,01,13,46,13.30
2020,01,01,13,47,13.40
2020,01,01,13,48,13.40
2020,01,01,13,49,13.40
2020,01,01,13,50,13.40
2020,01,01,13,51,13.40
2020,01,01,13,52,13.40
2020,01,01,13,53,13.50
2020,01,01,13,54,13.50
2020,01,01,13,55,13.60
2020,01,01,13,56,13.60
2020,01,01,13,57,13.60
2020,01,01,13,58,13.60
2020,01,01,13,59,13.70
2020,01,01,14,00,13.70
2020,01,01,14,01,13.70
2020,01,01,14,02,13.70
2020,01,01,14,03,13.60
2020,01,01,14,04,13.60
2020,01,01,14,05,13.60
2020,01,01,14,06,13.60
2020,01,01,14,07,13.60
2020,01,01,14,08,13.60
2020,01,01,14,09,13.60
2020,01,01,14,10,13.60
2020,01,01,14,11,13.60
2020,01,01,14,12,13.60
2020,01,01,14,13,13.60
2020,01,01,14,14,13.60
2020,01,01,14,15,13.50
2020,01,01,14,16,13.50
2020,01,01,14,17,13.40
2020,01,01,14,18,13.30
2020,01,01,14,19,13.20
2020,01,01,14,20,13.10
2020,01,01,14,21,13.10
2020,01,01,14,22,13.00
2020,01,01,14,23,12.90
2020,01,01,14,24,12.80
2020,01,01,14,25,12.80
2020,01,01,14,26,12.70
2020,01,01,14,27,12.70
2020,01,01,14,28,12.70
2020,01,01,14,29,12.60
2020,01,01,14,30,12.60
2020,01,01,14,31,12.60
2020,01,01,14,32,12.60
2020,01,01,14,33,12.50
2020,01,01,14,34,12.60
2020,01,01,14,35,12.60
2020,01,01,14,36,12.60
2020,01,01,14,37,12.60
2020,01,01,14,38,12.60
2020,01,01,14,39,12.60
2020,01,01,14,40,12.60
2020,01,01,14,41,12.60
2020,01,01,14,42,12.60
2020,01,01,14,43,12.60
2020,01,01,14,44,12.60
2020,01,01,14,45,12.60
2020,01,01,14,46,12.50
2020,01,01,14,47,12.40
2020,01,01,14,48,12.40
2020,01,01,14,49,12.40
2020,01,01,14,50,12.30
2020,01,01,14,51,12.30
2020,01,01,14,52,12.30
2020,01,01,14,53,12.20
2020,01,01,14,54,12.20
2020,01,01,14,55,12.10
2020,01,01,14,56,12.10
2020,01,01,14,57,12.10
2020,01,01,14,58,12.00
2020,01,01,14,59,12.00
2020,01,01,15,00,11.90
2020,01,01,15,01,11.90
2020,01,01,15,02,11.90
2020,01,01,15,03,11.90
2020,01,01,15,04,11.90
2020,01,01,15,05,11.90
2020,01,01,15,06,12.00
2020,01,01,15,07,12.00
2020,01,01,15,08,12.00
2020,01,01,15,09,12.00
2020,01,01,15,10,12.10
2020,01,01,15,11,12.10
2020,01,01,15,12,12.10
2020,01,01,15,13,12.10
2020,01,01,15,14,12.10
2020,01,01,15,15,12.00
2020,01,01,15,16,12.00
2020,01,01,15,17,11.90
2020,01,01,15,18,11.80
2020,01,01,15,19,11.80
2020,01,01,15,20,11.70
2020,01,01,15,21,11.70
2020,01,01,15,22,11.60
2020,01,01,15,23,11.50
2020,01,01,15,24,11.40
2020,01,01,15,25,11.40
2020,01,01,15,26,11.30
2020,01,01,15,27,11.20
2020,01,01,15,28,11.10
2020,01,01,15,29,11.10
2020,01,01,15,30,11.10
2020,01,01,15,31,11.10
2020,01,01,15,32,11.00
2020,01,01,15,33,11.00
2020,01,01,15,34,11.00
2020,01,01,15,35,10.90
2020,01,01,15,36,10.90
2020,01,01,15,37,10.90
2020,01,01,15,38,10.90
2020,01,01,15,39,10.90
2020,01,01,15,40,10.90
2020,01,01,15,41,10.90
2020,01,01,15,42,10.90
2020,01,01,15,43,10.90
2020,01,01,15,44,11.00
2020,01,01,15,45,11.00
2020,01,01,15,46,11.00
2020,01,01,15,47,11.00
2020,01,01,15,48,11.10
2020,01,01,15,49,11.10
2020,01,01,15,50,11.10
2020,01,01,15,51,11.20
2020,01,01,15,52,11.20
2020,01,01,15,53,11.30
2020,01,01,15,54,11.30
2020,01,01,15,55,11.30
2020,01,01,15,56,11.40
2020,01,01,15,57,11.40
2020,01,01,15,58,11.40
2020,01,01,15,59,11.20
2020,01,01,16,00,10.20
2020,01,01,16,01,10.20
2020,01,01,16,02,10.20
2020,01,01,16,03,10.20
2020,01,01,16,04,10.20
2020,01,01,16,05,10.20
2020,01,01,16,06,10.20
2020,01,01,16,07,10.20
2020,01,01,16,08,10.20
2020,01,01,16,09,10.20
2020,01,01,16,10,10.20
2020,01,01,16,11,10.20
